Eaton, Ohio, United States (45320)
Lat: 39.74N, Lon: 84.64W
Wx Zone: OHZ060
Local Info
Past Weather Observations for Today

NOTE: This archive is for the closest National Weather Service station to Eaton. Information may differ from the station used for current weather conditions.

Click here for Long-term Archive

Time Weather Temperature Dewpoint Humidity Pressure Winds Precip Visibility
19:53
Clear
77°F / 25°C 73°F / 23°C 89% 29.98 in
(1015 mb)
S 3.5 mph
(S 6 kph)
- 7SM
18:53
Partly Cloudy
79°F / 26°C 73°F / 23°C 84% 29.95 in
(1014 mb)
S 5.8 mph
(S 9 kph)
- 10SM
17:53
Overcast
79°F / 26°C 73°F / 23°C 84% 29.95 in
(1014 mb)
E 4.6 mph
(E 7 kph)
- 10SM
17:21
Mostly Cloudy
79°F / 26°C 72°F / 22°C 79% 29.98 in
(1015 mb)
E 3.5 mph
(E 6 kph)
- 10SM
17:07
Mostly Cloudy
Thunder Storms
79°F / 26°C 73°F / 23°C 84% 29.98 in
(1015 mb)
SE 6.9 mph
(SE 11 kph)
- 10SM
16:53
Mostly Cloudy
Thunder Storms
79°F / 26°C 73°F / 23°C 84% 29.98 in
(1015 mb)
ENE 6.9 mph
(ENE 11 kph)
- 10SM
16:34
Partly Cloudy
Thunder Storms
79°F / 26°C 73°F / 23°C 84% 29.98 in
(1015 mb)
S 4.6 mph
(S 7 kph)
- 10SM
16:23
Overcast
77°F / 25°C 72°F / 22°C 83% 29.95 in
(1014 mb)
S 6.9 mph
(S 11 kph)
- 10SM
16:08
Mostly Cloudy
Thunder Storms
77°F / 25°C 73°F / 23°C 89% 29.95 in
(1014 mb)
S 4.6 mph
(S 7 kph)
- 10SM
15:53
Partly Cloudy
75°F / 24°C 72°F / 22°C 89% 29.95 in
(1014 mb)
E 5.8 mph
(E 9 kph)
0.00 in
(0.00 mm)
10SM
15:37
Clear
75°F / 24°C 72°F / 22°C 89% 29.95 in
(1014 mb)
Calm 0.00 in
(0.00 mm)
10SM
15:11
Partly Cloudy
Thunder Storms
75°F / 24°C 72°F / 22°C 89% 29.95 in
(1014 mb)
Variable 3.5 mph
(Variable 6 kph)
0.00 in
(0.00 mm)
10SM
15:01
Partly Cloudy
Thunder Storms
73°F / 23°C 72°F / 22°C 94% 29.95 in
(1014 mb)
S 6.9 mph
(S 11 kph)
0.00 in
(0.00 mm)
5SM
14:58
Mostly Cloudy
Thunder Storms
73°F / 23°C 72°F / 22°C 94% 29.98 in
(1015 mb)
SSE 11.5 mph
(SSE 19 kph)
0.00 in
(0.00 mm)
2SM
14:53
Mostly Cloudy
Thunder Storms
73°F / 23°C 72°F / 22°C 94% 29.98 in
(1015 mb)
S 16.1 mph
(S 26 kph)
0.50 in
(12.70 mm)
1SM
14:51
Mostly Cloudy
Thunder Storms
73°F / 23°C 70°F / 21°C 89% 29.98 in
(1015 mb)
SW 13.8 mph
(SW 22 kph)
0.50 in
(12.70 mm)
1/2SM
14:42
Overcast
Thunder Storms
79°F / 26°C 72°F / 22°C 79% 30.01 in
(1016 mb)
NW 12.7 mph
(NW 20 kph)
0.34 in
(8.64 mm)
1/2SM
14:39
Overcast
Thunder Storms
81°F / 27°C 73°F / 23°C 79% 30.01 in
(1016 mb)
WNW 23 mph
(WNW 37 kph)
0.21 in
(5.33 mm)
3/4SM
14:33
Mostly Cloudy
Thunder Storms
84°F / 29°C 73°F / 23°C 70% 29.95 in
(1014 mb)
NNW 4.6 mph
(NNW 7 kph)
0.04 in
(1.02 mm)
2 1/2SM
14:19
Mostly Cloudy
Thunder Storms
88°F / 31°C 72°F / 22°C 59% 29.95 in
(1014 mb)
SSE 5.8 mph
(SSE 9 kph)
- 10SM
13:53
Partly Cloudy
90°F / 32°C 72°F / 22°C 55% 29.95 in
(1014 mb)
SSW 4.6 mph
(SSW 7 kph)
- 10SM
12:53
Partly Cloudy
90°F / 32°C 73°F / 23°C 59% 29.98 in
(1015 mb)
Variable 3.5 mph
(Variable 6 kph)
- 10SM
11:53
Partly Cloudy
88°F / 31°C 72°F / 22°C 59% 29.98 in
(1015 mb)
SSW 6.9 mph
(SSW 11 kph)
- 10SM
10:53
Clear
88°F / 31°C 72°F / 22°C 59% 30.01 in
(1016 mb)
WNW 5.8 mph
(WNW 9 kph)
- 10SM
09:53
Clear
84°F / 29°C 72°F / 22°C 66% 30.01 in
(1016 mb)
Variable 3.5 mph
(Variable 6 kph)
- 10SM
08:53
Clear
82°F / 28°C 73°F / 23°C 74% 30.01 in
(1016 mb)
SW 3.5 mph
(SW 6 kph)
- 8SM
07:53
Partly Cloudy
Hazy
79°F / 26°C 73°F / 23°C 84% 30.01 in
(1016 mb)
S 3.5 mph
(S 6 kph)
- 5SM
06:53
Clear
Fog And Mist
75°F / 24°C 72°F / 22°C 89% 30.01 in
(1016 mb)
SW 3.5 mph
(SW 6 kph)
- 4SM
05:53
Clear
Fog And Mist
73°F / 23°C 70°F / 21°C 89% 29.98 in
(1015 mb)
S 3.5 mph
(S 6 kph)
- 4SM
04:53
Clear
Fog And Mist
73°F / 23°C 70°F / 21°C 89% 29.98 in
(1015 mb)
Calm - 4SM
03:53
Clear
Fog And Mist
72°F / 22°C 70°F / 21°C 94% 29.98 in
(1015 mb)
NE 3.5 mph
(NE 6 kph)
- 6SM
02:53
Clear
72°F / 22°C 70°F / 21°C 94% 29.98 in
(1015 mb)
ENE 3.5 mph
(ENE 6 kph)
- 7SM
01:53
Clear
73°F / 23°C 70°F / 21°C 89% 29.98 in
(1015 mb)
Calm - 8SM
00:53
Clear
75°F / 24°C 72°F / 22°C 89% 29.98 in
(1015 mb)
Calm - 9SM
Time Weather Temperature Dewpoint Humidity Pressure Winds Precip Visibility


Weather for websites

WeatherForYou.com, LLC is not responsible for any damages or problems caused by this service. Current weather conditions are obtained from the closest station including government and personal stations which may have varying degrees of accuracy. Weather forecasts are derived from the NOAA NDFD. Like all things, this site belongs to Jesus Christ... He just trusts us to maintain it. If you have any questions or comments email webmaster@weatherforyou.com

Copyright © 2015, WeatherForYou.com LLC. All rights reserved.